Regional Weather Roundup
Issued by NWS

Home | Current Version | Previous Version | Graphics & Text | Print | Product List | Glossary Off
Versions: 1 2 3 4 5 6 7 8 9 10 11 12 13 14 15 16 17 18 19 20 21 22 23 24 25 26 27 28 29 30 31 32 33 34 35 36 37 38 39 40 41 42 43 44 45 46 47 48 49 50

000
ASUS43 KFSD 180002
RWRSD

WEATHER ROUNDUP FOR SOUTH DAKOTA
NATIONAL WEATHER SERVICE SIOUX FALLS SD
600 PM CST TUE JAN 17 2017

NOTE: "FAIR" INDICATES FEW OR NO CLOUDS BELOW 12,000 FEET WITH NO
SIGNIFICANT WEATHER AND/OR OBSTRUCTIONS TO VISIBILITY.


SDZ001>005-009-010-012>017-180100-
NORTHWEST AND NORTH CENTRAL SOUTH DAKOTA

CITY           SKY/WX    TMP DP  RH WIND       PRES   REMARKS
BUFFALO          N/A     35  22  58 W9        29.77S WCI  28
FAITH            N/A     23  16  74 CALM      29.85S
MOBRIDGE       CLOUDY    17  10  74 SE10      29.84F WCI   5
$$

SDZ012>016-024>037-041>051-057-063-072>074-180100-
SOUTHWEST AND SOUTH CENTRAL SOUTH DAKOTA

CITY           SKY/WX    TMP DP  RH WIND       PRES   REMARKS
RAPID CTY ARPT CLOUDY    35  17  47 CALM      29.88S
PIERRE         CLOUDY    20  14  77 S5        29.90S WCI  13
CUSTER         CLOUDY    40  11  30 W7        29.90R
ELLSWORTH AFB  CLOUDY    39  14  35 SW6       29.87S
PHILIP         CLOUDY    29  21  72 W9        29.89S WCI  20
PINE RIDGE     CLOUDY    31  19  61 SW3       29.93R
SPEARFISH      FAIR      46  18  31 W8        29.88S
WINNER         FAIR      43  20  39 SW7       29.91S
$$

SDZ004>011-016>023-039-040-180100-
NORTHEAST SOUTH DAKOTA

CITY           SKY/WX    TMP DP  RH WIND       PRES   REMARKS
ABERDEEN       CLOUDY    15  10  80 S8        29.93R WCI   4
WATERTOWN      CLOUDY    18  14  84 S7        29.92F WCI   9
BROOKINGS      CLOUDY    24  20  84 S9        29.95F WCI  14
SISSETON         N/A     25  20  81 S6        29.90S WCI  18
$$

SDZ017-020-022-023-036>040-048>070-180100-
SOUTHEAST SOUTH DAKOTA

CITY           SKY/WX    TMP DP  RH WIND       PRES   REMARKS
SIOUX FALLS    PTCLDY    29  23  78 S6        30.00S WCI  23
HURON          CLOUDY    28  23  81 S6        29.94F WCI  22
CHAMBERLAIN    CLOUDY    35  28  75 SE7       29.92S WCI  29
MITCHELL       CLOUDY    31  25  78 S9        29.97S WCI  23
YANKTON        CLEAR     32  28  86 SE6       30.02S WCI  26
$$

ABBREVIATIONS USED IN REMARKS
   TC - TEMPERATURE IN CELSIUS
  WCI - WIND CHILL INDEX
   HX - HEAT INDEX
  VSB - VISIBILITY





USA.gov is the U.S. government's official web portal to all federal, state and local government web resources and services.